Location: ?????
(55.6500°N, 37.2500°E)
Time: 02:09:56
(UTC+00:00)

USA 229 DEB - Pass Details

Date: 19 May 2025
Orbit: 872 x 1339 km, 63.4° (Epoch: 14 June)

Event Time Altitude Azimuth Distance (km) Brightness Sun altitude
Exits shadow 21:33:21 18° 202° (SSW) 2,138 4.7 -14.4°
Maximum altitude 21:37:56 58° 129° (SE) 1,164 3.7 -14.3°
Drops below altitude 10° 21:44:40 10° 53° (NE) 2,952 6.6 -14.3°
Sets 21:47:32 0° 50° (NE) 3,986 7.4 -14.3°
